Location: B?dimalle
(17.1788°N, 80.5377°E)
Time: 09:10:26
(UTC+00:00)

Vanguard 1 - All Passes

Search period start: 19 February 2026 00:00
Search period end: 01 March 2026 00:00
Orbit: 652 x 3819 km, 34.3° (Epoch: 17 February)

Date Brightness Start Highest point End Pass type
(mag) Time Alt. Az. Time Alt. Az. Time Alt. Az.
19 Feb - 06:34:58 10° SSW 06:40:22 46° SE 06:49:27 10° ENE daylight
19 Feb - 08:54:08 10° W 09:01:53 53° NNW 09:16:22 10° NE daylight
19 Feb - 11:16:18 10° WNW 11:28:05 41° N 11:47:21 10° ENE daylight
19 Feb - 13:39:16 10° NW 13:57:07 58° NNE 14:20:17 10° E visible
19 Feb - 16:03:15 10° WNW 16:25:41 81° SW 16:46:57 10° SE visible
19 Feb - 18:32:08 10° WNW 18:51:29 34° SW 19:06:44 10° SSE visible
20 Feb - 06:53:50 10° SW 06:59:30 70° SE 07:09:34 10° ENE daylight
20 Feb - 09:13:56 10° W 09:22:00 45° NNW 09:36:36 10° NE daylight
20 Feb - 11:36:15 10° WNW 11:48:45 42° N 12:08:43 10° ENE daylight
20 Feb - 13:58:57 10° NW 14:17:33 65° NNE 14:40:59 10° ESE visible
20 Feb - 16:23:14 10° WNW 16:45:32 69° SW 17:06:15 10° SE visible
20 Feb - 18:54:17 10° W 19:10:59 25° SW 19:24:30 10° S visible
21 Feb - 04:57:14 10° SSE 04:59:32 13° SE 05:02:10 10° ESE daylight
21 Feb - 07:13:00 10° WSW 07:18:52 82° NNW 07:29:30 10° ENE daylight
21 Feb - 09:33:51 10° WNW 09:42:15 40° N 09:57:04 10° ENE daylight
21 Feb - 11:56:05 10° NW 12:09:23 45° NNE 12:30:11 10° E daylight
21 Feb - 14:18:35 10° NW 14:37:50 75° NNE 15:01:23 10° ESE visible
21 Feb - 16:43:25 10° WNW 17:05:16 57° SW 17:25:16 10° SSE visible
21 Feb - 19:17:54 10° W 19:30:38 18° SW 19:41:25 10° S visible
22 Feb - 05:14:34 10° S 05:18:28 23° SE 05:23:40 10° E daylight
22 Feb - 07:32:26 10° WSW 07:38:27 60° NNW 07:49:21 10° NE daylight
22 Feb - 09:53:48 10° WNW 10:02:38 37° N 10:17:51 10° ENE daylight
22 Feb - 12:15:48 10° NW 12:29:54 49° NNE 12:51:35 10° E daylight
22 Feb - 14:38:13 10° WNW 14:57:57 86° NNE 15:21:27 10° ESE visible
22 Feb - 17:03:56 10° WNW 17:24:56 46° SW 17:43:59 10° SSE visible
22 Feb - 19:45:06 10° WSW 19:50:34 11° SW 19:55:38 10° SSW visible
23 Feb - 05:32:56 10° SSW 05:37:26 40° SE 05:44:06 10° ENE daylight
23 Feb - 07:52:05 10° W 07:58:16 46° NNW 08:09:13 10° NE daylight
23 Feb - 10:13:42 10° WNW 10:23:04 36° N 10:38:55 10° ENE daylight
23 Feb - 12:35:24 10° NW 12:50:17 55° NNE 13:12:48 10° E visible
23 Feb - 14:57:54 10° WNW 15:17:57 82° SW 15:41:11 10° SE visible
23 Feb - 17:24:59 10° W 17:44:37 36° SW 18:02:22 10° SSE visible
24 Feb - 05:51:47 10° SW 05:56:34 67° SE 06:04:05 10° ENE daylight
24 Feb - 08:11:53 10° W 08:18:15 38° N 08:29:13 10° NE daylight
24 Feb - 10:33:31 10° NW 10:43:30 37° N 11:00:17 10° ENE daylight
24 Feb - 12:54:56 10° NW 13:10:31 63° NNE 13:33:44 10° ESE visible
24 Feb - 15:17:43 10° WNW 15:37:51 70° SW 16:00:37 10° SE visible
24 Feb - 17:46:45 10° W 18:04:23 28° SW 18:20:19 10° S visible
25 Feb - 03:56:16 10° SE 03:56:33 10° SE 03:56:52 10° SE daylight
25 Feb - 06:10:58 10° WSW 06:15:53 79° NNW 06:23:50 10° ENE daylight
25 Feb - 08:31:47 10° WNW 08:38:22 33° N 08:49:26 10° NE daylight
25 Feb - 10:53:12 10° NW 11:03:52 40° NNE 11:21:48 10° E daylight
25 Feb - 13:14:25 10° NW 13:30:37 73° NNE 13:54:19 10° ESE visible
25 Feb - 15:37:44 10° WNW 15:57:43 58° SW 16:19:45 10° SE visible
25 Feb - 18:09:44 10° W 18:24:19 20° SW 18:37:36 10° S visible
26 Feb - 04:12:23 10° S 04:15:40 20° SE 04:19:25 10° E daylight
26 Feb - 06:30:26 10° WSW 06:35:25 53° NNW 06:43:29 10° NE daylight
26 Feb - 08:51:41 10° WNW 08:58:34 31° N 09:09:58 10° ENE daylight
26 Feb - 11:12:46 10° NW 11:24:08 45° NNE 11:43:18 10° E daylight
26 Feb - 13:33:54 10° WNW 13:50:37 84° NNE 14:14:34 10° ESE visible
26 Feb - 15:58:04 10° WNW 16:17:34 47° SW 16:38:35 10° SSE visible
26 Feb - 18:35:04 10° WSW 18:44:32 14° SW 18:53:21 10° SSW visible
27 Feb - 04:30:42 10° SSW 04:34:46 36° SE 04:39:47 10° ENE daylight
27 Feb - 06:50:08 10° W 06:55:08 39° NNW 07:03:06 10° NE daylight
27 Feb - 09:11:32 10° NW 09:18:49 30° N 09:30:51 10° ENE daylight
27 Feb - 11:32:13 10° NW 11:44:17 51° NNE 12:04:39 10° E daylight
27 Feb - 13:53:28 10° WNW 14:10:33 83° SW 14:34:28 10° SE visible
27 Feb - 16:18:51 10° W 16:37:28 38° SW 16:57:04 10° SSE visible
28 Feb - 04:49:33 10° SW 04:53:55 65° SE 04:59:38 10° ENE daylight
28 Feb - 07:10:00 10° WNW 07:15:00 31° N 07:22:49 10° NE daylight
28 Feb - 09:31:14 10° NW 09:39:03 32° NNE 09:52:04 10° ENE daylight
28 Feb - 11:51:36 10° NW 12:04:17 60° NNE 12:25:44 10° ESE daylight
28 Feb - 14:13:09 10° WNW 14:30:27 70° SW 14:54:02 10° SE visible
28 Feb - 16:40:18 10° W 16:57:28 29° SW 17:15:09 10° SSE visible
